CSZ211 ZUCK-VQPR

Flight info

Callsign CSZ211
Flight time N/A
Altitude 36100
Route URGE2U URGEG W80 WFX V69 KDJ W9 BIGOR W260 ENPAT Y3 OLGUT B345 NONIM/N0467F350 B345 TUMLI/N0471F330 G348 SUBSU
Aircraft B738/M-SABDE1FGHIJ1RWXYZ/LB1

Departure

Time 2026-04-22 03:46
Airport Chongqing Jiangbei International Airport (ZUCK)

Arrival

Time N/A
Airport Paro International Airport (VQPR)
Time Latitude Longitude Altitude Speed Heading
2026-04-22 03:30 29.72936 106.65414 1350 ft 0 kts 132°
2026-04-22 03:38 29.72951 106.65396 1353 ft 4 kts 134°
2026-04-22 03:38 29.72970 106.65374 1354 ft 4 kts 136°
2026-04-22 03:38 29.72989 106.65353 1351 ft 4 kts 137°
2026-04-22 03:38 29.73011 106.65336 1352 ft 4 kts 168°
2026-04-22 03:39 29.73036 106.65337 1351 ft 3 kts 196°
2026-04-22 03:39 29.73039 106.65338 1351 ft 1 kts 197°
2026-04-22 03:41 29.73032 106.65335 1352 ft 5 kts 197°
2026-04-22 03:41 29.72963 106.65312 1354 ft 15 kts 196°
2026-04-22 03:41 29.72875 106.65193 1357 ft 24 kts 213°
2026-04-22 03:42 29.72665 106.65115 1354 ft 42 kts 196°
2026-04-22 03:42 29.72320 106.64997 1355 ft 58 kts 197°
2026-04-22 03:42 29.71948 106.64869 1355 ft 54 kts 197°
2026-04-22 03:42 29.71619 106.64756 1357 ft 46 kts 197°
2026-04-22 03:43 29.71323 106.64655 1355 ft 42 kts 196°
2026-04-22 03:43 29.71053 106.64563 1356 ft 39 kts 197°
2026-04-22 03:43 29.70807 106.64474 1357 ft 35 kts 198°
2026-04-22 03:43 29.70581 106.64397 1357 ft 32 kts 194°
2026-04-22 03:44 29.70426 106.64325 1357 ft 18 kts 245°
2026-04-22 03:44 29.70433 106.64221 1359 ft 8 kts 281°
2026-04-22 03:44 29.70453 106.64162 1358 ft 10 kts 291°
2026-04-22 03:44 29.70486 106.64083 1358 ft 11 kts 328°
2026-04-22 03:45 29.70556 106.64093 1359 ft 9 kts 17°
2026-04-22 03:45 29.70682 106.64137 1359 ft 46 kts 17°
2026-04-22 03:45 29.71226 106.64324 1356 ft 115 kts 17°
2026-04-22 03:45 29.72180 106.64647 1377 ft 168 kts 18°
2026-04-22 03:46 29.73330 106.65094 1986 ft 172 kts 15°
2026-04-22 03:46 29.74457 106.65380 2950 ft 163 kts
2026-04-22 03:46 29.75578 106.65698 3572 ft 169 kts 17°
2026-04-22 03:46 29.76709 106.66117 3974 ft 174 kts 16°
2026-04-22 03:47 29.77862 106.66540 4512 ft 176 kts 14°
2026-04-22 03:47 29.79062 106.66912 5139 ft 187 kts 14°
2026-04-22 03:47 29.80397 106.67358 5324 ft 213 kts 15°
2026-04-22 03:47 29.81894 106.67883 5547 ft 236 kts 16°
2026-04-22 03:48 29.83533 106.68476 5842 ft 260 kts 16°
2026-04-22 03:48 29.85310 106.69113 6413 ft 272 kts 15°
2026-04-22 03:48 29.87127 106.69759 7187 ft 276 kts 15°
2026-04-22 03:48 29.88980 106.70411 7939 ft 282 kts 15°
2026-04-22 03:49 29.90867 106.71065 8803 ft 282 kts 15°
2026-04-22 03:49 29.92737 106.71719 9689 ft 283 kts 15°
2026-04-22 03:49 29.94635 106.72386 10342 ft 291 kts 15°
2026-04-22 03:49 29.96644 106.73090 10558 ft 315 kts 15°
2026-04-22 03:50 29.98814 106.73853 10741 ft 338 kts 15°
2026-04-22 03:50 30.01127 106.74668 10902 ft 359 kts 15°
2026-04-22 03:50 30.03580 106.75534 11061 ft 379 kts 15°
2026-04-22 03:50 30.06126 106.76433 11467 ft 388 kts 15°
2026-04-22 03:51 30.08698 106.77342 12247 ft 384 kts 15°
2026-04-22 03:51 30.11239 106.78241 13056 ft 383 kts 15°
2026-04-22 03:51 30.13803 106.79108 13638 ft 386 kts 10°
2026-04-22 03:51 30.16469 106.79198 14112 ft 386 kts 347°
2026-04-22 03:52 30.18935 106.78040 14659 ft 385 kts 326°
2026-04-22 03:52 30.21075 106.76192 15200 ft 387 kts 320°
2026-04-22 03:52 30.23106 106.74143 15670 ft 390 kts 315°
2026-04-22 03:52 30.25011 106.71889 16162 ft 394 kts 312°
2026-04-22 03:53 30.26860 106.69551 16658 ft 396 kts 311°
2026-04-22 03:53 30.28710 106.67179 17079 ft 401 kts 311°
2026-04-22 03:53 30.30586 106.64792 17526 ft 404 kts 312°
2026-04-22 03:53 30.32489 106.62396 18006 ft 406 kts 312°
2026-04-22 03:54 30.34415 106.59994 18428 ft 409 kts 312°
2026-04-22 03:54 30.36360 106.57583 18800 ft 412 kts 312°
2026-04-22 03:54 30.38317 106.55162 19205 ft 413 kts 312°
2026-04-22 03:54 30.40284 106.52732 19598 ft 415 kts 312°
2026-04-22 03:55 30.42262 106.50288 19972 ft 418 kts 312°
2026-04-22 03:55 30.44249 106.47829 20350 ft 420 kts 312°
2026-04-22 03:55 30.46245 106.45358 20725 ft 422 kts 311°
2026-04-22 03:55 30.48250 106.42874 21123 ft 424 kts 311°
2026-04-22 03:56 30.50263 106.40377 21488 ft 426 kts 311°
2026-04-22 03:56 30.52288 106.37864 21816 ft 429 kts 311°
2026-04-22 03:56 30.54325 106.35336 22162 ft 431 kts 311°
2026-04-22 03:56 30.56371 106.32794 22544 ft 432 kts 311°
2026-04-22 03:57 30.58169 106.30032 22924 ft 431 kts 296°
2026-04-22 03:57 30.59170 106.26772 23280 ft 431 kts 282°
2026-04-22 03:57 30.59460 106.23314 23577 ft 434 kts 268°
2026-04-22 03:57 30.59165 106.19828 23875 ft 436 kts 264°
2026-04-22 03:58 30.58776 106.16346 24171 ft 436 kts 263°
2026-04-22 03:58 30.58371 106.12862 24501 ft 436 kts 263°
2026-04-22 03:58 30.57976 106.09379 24827 ft 436 kts 263°
2026-04-22 03:58 30.57595 106.05892 25125 ft 437 kts 263°
2026-04-22 03:59 30.57224 106.02399 25414 ft 437 kts 263°
2026-04-22 03:59 30.56860 105.98900 25702 ft 438 kts 263°
2026-04-22 03:59 30.56498 105.95400 26000 ft 438 kts 263°
2026-04-22 03:59 30.56135 105.91898 26282 ft 438 kts 263°
2026-04-22 04:00 30.55772 105.88392 26543 ft 439 kts 263°
2026-04-22 04:00 30.55406 105.84879 26805 ft 439 kts 263°
2026-04-22 04:00 30.55038 105.81364 27050 ft 440 kts 263°
2026-04-22 04:00 30.54669 105.77845 27279 ft 441 kts 263°
2026-04-22 04:01 30.54299 105.74325 27507 ft 442 kts 263°
2026-04-22 04:01 30.53926 105.70792 27740 ft 442 kts 263°